This is the latest recevied weather packets stored in our database for station/object KI5RAB. If no packets are shown the sender has not sent any weather packets the latest 10 day(s).
| Time | Temp. | Humidity | Pressure | Rain* | Wind** | Luminosity | Snow |
|---|---|---|---|---|---|---|---|
| 1777402039 | 28.89° C | 79% | 1015.4 hPa | 0 mm | - | 166 W/m² | - |
| 1777401734 | 28.89° C | 79% | 1015.5 hPa | 0 mm | - | 290 W/m² | - |
| 1777401430 | 29.44° C | 77% | 1015.7 hPa | 0 mm | - | 249 W/m² | - |
| 1777401126 | 28.89° C | 79% | 1015.7 hPa | 0 mm | - | 247 W/m² | - |
| 1777400821 | 28.89° C | 79% | 1015.6 hPa | 0 mm | - | 254 W/m² | - |
| 1777400518 | 28.89° C | 78% | 1015.8 hPa | 0 mm | - | 258 W/m² | - |
| 1777400215 | 28.89° C | 78% | 1015.8 hPa | 0 mm | - | 284 W/m² | - |
| 1777399911 | 28.33° C | 79% | 1015.7 hPa | 0 mm | - | 263 W/m² | - |
| 1777399608 | 28.89° C | 80% | 1015.6 hPa | 0 mm | - | 289 W/m² | - |
| 1777399305 | 28.33° C | 79% | 1015.6 hPa | 0 mm | - | 244 W/m² | - |
| 1777399004 | 28.33° C | 80% | 1015.5 hPa | 0 mm | - | 218 W/m² | - |
| 1777398700 | 28.33° C | 80% | 1015.7 hPa | 0 mm | - | 219 W/m² | - |
| 1777398397 | 28.33° C | 80% | 1015.6 hPa | 0 mm | - | 157 W/m² | - |
| 1777398093 | 28.33° C | 80% | 1015.8 hPa | 0 mm | - | 153 W/m² | - |
| 1777397791 | 28.33° C | 79% | 1015.8 hPa | 0 mm | - | 195 W/m² | - |
| 1777397486 | 28.33° C | 80% | 1015.7 hPa | 0 mm | - | 228 W/m² | - |
| 1777397182 | 28.33° C | 80% | 1015.8 hPa | 0 mm | - | 225 W/m² | - |
| 1777396880 | 27.78° C | 80% | 1016 hPa | 0 mm | - | 284 W/m² | - |
| 1777396575 | 27.78° C | 81% | 1016.1 hPa | 0 mm | - | 240 W/m² | - |
| 1777396273 | 27.78° C | 82% | 1016.2 hPa | 0 mm | - | 203 W/m² | - |
| 1777395969 | 27.78° C | 82% | 1016.2 hPa | 0 mm | - | 187 W/m² | - |
| 1777395664 | 27.78° C | 82% | 1016.3 hPa | 0 mm | - | 182 W/m² | - |
| 1777395360 | 27.22° C | 83% | 1016.2 hPa | 0 mm | - | 143 W/m² | - |
| 1777395058 | 27.78° C | 82% | 1016.4 hPa | 0 mm | - | 127 W/m² | - |
| 1777394755 | 27.78° C | 83% | 1016.3 hPa | 0 mm | - | 181 W/m² | - |
* Rain latest hour (hover to see other rain measurements)
** Current wind speed in m/s (hover to see current wind gust speed)